Regional Weather Roundup
Issued by NWS Cleveland, OH

Home | Current Version | Previous Version | Graphics & Text | Print | Product List | Glossary On
Versions: 1 2 3 4 5 6 7 8 9 10 11 12 13 14 15 16 17 18 19 20 21 22 23 24 25 26 27 28 29 30 31 32 33 34 35 36 37 38 39 40 41 42 43 44 45 46 47 48 49 50
000
ASUS41 KCLE 222010
RWRCLE
OHIO REGIONAL WEATHER ROUNDUP
NATIONAL WEATHER SERVICE WILMINGTON, OH
400 PM EDT TUE APR 22 2014

NOTE: "FAIR" INDICATES FEW OR NO CLOUDS BELOW 12,000 FEET WITH NO
SIGNIFICANT WEATHER AND/OR OBSTRUCTIONS TO VISIBILITY.

OHZ001>008-015>018-024>027-034-035-043-044-222100-
   NORTHWEST OHIO

CITY           SKY/WX    TMP DP  RH WIND       PRES   REMARKS
DEFIANCE       SUNNY     57  33  40 W13G25    29.83S
FINDLAY        SUNNY     60  34  37 NW22G30   29.78S
TOLEDO EXPRESS MOSUNNY   59  32  36 NW17G25   29.79S
TOLEDO METCALF MOSUNNY   58  34  40 NW21G26   29.79S
LIMA           SUNNY     60  35  39 NW23G31   29.81R
$$

OHZ009>014-019>023-028>033-038-089-222100-
   NORTHEAST OHIO

CITY           SKY/WX    TMP DP  RH WIND       PRES   REMARKS
CLE-HOPKINS    MOSUNNY   56  40  55 NW16G24   29.77F
CLE-LAKEFRONT  MOSUNNY   47  45  93 W3        29.74S
CUY CO. ARPT   PTSUNNY   50  45  81 NW12      29.76S HAZE
LORAIN-ELYRIA  SUNNY     58  37  45 N21G29    29.76R
ASHTABULA      CLOUDY    45  38  76 NW13      29.74S
AKRON-CANTON   PTSUNNY   60  46  59 N14       29.72S
WOOSTER        MOSUNNY   59  44  57 NW17      29.72S
MANSFIELD      MOSUNNY   63  40  42 W16G29    29.74R
YOUNGSTOWN     CLOUDY    47  42  83 NW15      29.72R FOG
$$

OHZ042-051>053-060>062-070>072-077>081-222100-
  SOUTHWEST OHIO

CITY           SKY/WX    TMP DP  RH WIND       PRES   REMARKS
CINC-COVINGTON SUNNY     68  36  30 W17G26    29.83S
CINC-LUNKEN    SUNNY     68  39  34 NW13G23   29.82F
HAMILTON       SUNNY     67  35  30 W17G25    29.84S
DAYTON         SUNNY     63  35  35 NW15G31   29.83S
WRIGHT-PAT AFB SUNNY     64  31  29 W18G28    29.81S
DAYTON GENERAL SUNNY     64  34  32 NW20G30   29.81S
WILMINGTON     SUNNY     66  37  34 NW16G29   29.79S
$$

OHZ036-037-039>041-045>050-054>059-063>069-073>076-082>088-222100-
  CENTRAL AND SOUTHEAST OHIO

CITY           SKY/WX    TMP DP  RH WIND       PRES   REMARKS
COLUMBUS       MOSUNNY   69  38  32 W22G33    29.74F
OSU AIRPORT    SUNNY     66  35  31 W20G29    29.75S
BOLTON FIELD   SUNNY     64  37  36 W14G28    29.76F
RICKENBACK AFB SUNNY     69  32  25 NW22G30   29.75S
NEWARK         SUNNY     68  40  35 NW20G26   29.72S
MARION         SUNNY     62  34  35 NW21G28   29.77R
LANCASTER      SUNNY     68  40  35 NW15G29   29.75S
ZANESVILLE     SUNNY     71  39  31 W14       29.69S
NEW PHILLY     MOSUNNY   66  49  54 NW14G23   29.68F
$$



USA.gov is the U.S. government's official web portal to all federal, state and local government web resources and services.